SCP
0 0 0 0 0 0 0 0 0 0 0 0 0 0 0 0 0 0 0 0 0 0 0 0 0 0 0 0 0 0 0 0 0 0 0 0 0 0 0 0 0 0 0
0 0 0 0 0 0 0 0 0 0 0 0 0 0 0 0 0 0 0 0 0 0 0 0 0 0 0 0 0 0 0 0 0 0 0 0 0 0 0 0 0 0 0
0 0 0 0 0 0 0 0 0 0 0 0 0 0 0 0 0 0 0 0 0 0 0 0 0 0 0 0 0 0 0 0 0 0 0 0 0 0 0 0 0 0 0
0 0 0 0 0 0 0 0 0 0 0 0 0 0 0 0 0 0 0 0 0 0 0 0 0 0 0 0 0 0 0 0 0 0 0 0 0 0 0 0 0 0 0
0 0 0 0 0 0 0 0 0 0 0 0 0 0 0 0 0 0 0 0 0 0 0 0 0 0 0 0 0 0 0 0 0 0 0 0 0 0 0 0 0 0 0
0 0 0 0 0 0 0 0 0 0 0 0 0 0 0 0 0 0 0 0 0 0 0 0 0 0 0 0 0 0 0 0 0 0 0 0 0 0 0 0 0 0 0
0 0 0 0 0 0 0 0 0 0 0 0 0 0 0 0 0 0 0 0 0 0 0 0 0 0 0 0 0 0 0 0 0 0 0 0 0 0 0 0 0 0 0
0 0 0 0 0 0 0 0 0 0 0 0 0 0 0 0 0 0 0 0 0 0 0 0 0 0 0 0 0 0 0 0 0 0 0 0 0 0 0 0 0 0 0
0 0 0 0 0 0 0 0 0 0 0 0 0 0 0 0 0 0 0 0 0 0 0 0 0 0 0 0 0 0 0 0 0 0 0 0 0 0 0 0 0 0 0
0 0 0 0 0 0 0 0 0 0 0 0 0 0 0 0 0 0 0 0 0 0 0 0 0 0 0 0 0 0 0 0 0 0 0 0 0 0 0 0 0 0 0
0 0 0 0 0 0 0 0 0 0 0 0 0 0 0 0 0 0 0 0 0 0 0 0 0 0 0 0 0 0 0 0 0 0 0 0 0 0 0 0 0 0 0
0 0 0 0 0 0 0 0 0 0 0 0 0 0 0 0 0 0 0 0 0 0 0 0 0 0 0 0 0 0 0 0 0 0 0 0 0 0 0 0 0 0 0
0 0 0 0 0 0 0 0 0 0 0 0 0 0 0 0 0 0 0 0 0 0 0 0 0 0 0 0 0 0 0 0 0 0 0 0 0 0 0 0 0 0 0
0 0 0 0 0 0 0 0 0 0 0 0 0 0 0 0 0 0 0 0 0 0 0 0 0 0 0 0 0 0 0 0 0 0 0 0 0 0 0 0 0 0 0
0 0 0 0 0 0 0 0 0 0 0 0 0 0 0 0 0 0 0 0 0 0 0 0 0 0 0 0 0 0 0 0 0 0 0 0 0 0 0 0 0 0 0
0 0 0 0 0 0 0 0 0 0 0 0 0 0 0 0 0 0 0 0 0 0 0 0 0 0 0 0 0 0 0 0 0 0 0 0 0 0 0 0 0 0 0
0 0 0 0 0 0 0 0 0 0 0 0 0 0 0 0 0 0 0 0 0 0 0 0 0 0 0 0 0 0 0 0 0 0 0 0 0 0 0 0 0 0 0
0 0 0 0 0 0 0 0 0 0 0 0 0 0 0 0 0 0 0 0 0 0 0 0 0 0 0 0 0 0 0 0 0 0 0 0 0 0 0 0 0 0 0
0 0 0 0 0 0 0 0 0 0 0 0 0 0 0 0 0 0 0 0 0 0 0 0 0 0 0 0 0 0 0 0 0 0 0 0 0 0 0 0 0 0 0
0 0 0 0 0 0 0 0 0 0 0 0 0 0 0 0 0 0 0 0 0 0 0 0 0 0 0 0 0 0 0 0 0 0 0 0 0 0 0 0 0 0 0
0 0 0 0 0 0 0 0 0 0 0 0 0 0 0 0 0 0 0 0 0 0 0 0 0 0 0 0 0 0 0 0 0 0 0 0 0 0 0 0 0 0 0
0 0 0 0 0 0 0 0 0 0 0 0 0 0 0 0 0 0 0 0 0 0 0 0 0 0 0 0 0 0 0 0 0 0 0 0 0 0 0 0 0 0 0
0 0 0 0 0 0 0 0 0 0 0 0 0 0 0 0 0 0 0 0 0 0 0 0 0 0 0 0 0 0 0 0 0 0 0 0 0 0 0 0 0 0 0
0 0 0 0 0 0 0 0 0 0 0 0 0 0 0 0 0 0 0 0 0 0 0 0 0 0 0 0 0 0 0 0 0 0 0 0 0 0 0 0 0 0 0
0 0 0 0 0 0 0 0 0 0 0 0 0 0 0 0 0 0 0 0 0 0 0 0 0 0 0 0 0 0 0 0 0 0 0 0 0 0 0 0 0 0 0
0 0 0 0 0 0 0 0 0 0 0 0 0 0 0 0 0 0 0 0 0 0 0 0 0 0 0 0 0 0 0 0 0 0 0 0 0 0 0 0 0 0 0
Wind_Speed_500mb
53 58 63 66 66 66 66 66 61 61 60 63 68 72 72 81 84 82 79 78 77 78 73 66 60 54 47 40 32 25 19 15 19 30 32 26 23 22 22 25 28 33 39
46 54 60 60 62 64 65 64 63 63 64 66 68 70 71 83 87 81 82 82 82 79 77 70 64 57 48 38 31 21 20 18 18 33 31 28 23 23 27 31 37 41 45
41 50 56 62 64 63 62 62 63 62 64 68 68 71 73 81 87 82 79 79 81 78 77 72 68 60 50 41 23 17 19 18 33 34 30 27 26 28 32 37 42 47 50
42 50 57 63 64 62 61 61 64 65 69 72 71 70 69 77 84 83 78 78 76 72 70 66 58 52 46 27 14 18 18 27 34 33 30 28 29 34 37 42 44 50 53
51 57 63 68 66 64 63 63 64 68 70 69 72 71 71 77 82 80 82 81 78 75 68 61 55 51 29 15 14 14 26 35 34 32 31 27 32 37 39 44 48 52 54
61 62 66 70 67 68 64 62 63 69 72 71 71 70 72 76 80 81 78 79 77 75 69 64 60 51 32 19 19 32 36 37 34 33 31 33 35 38 41 45 48 53 59
67 66 68 71 72 72 68 64 64 70 72 70 71 72 73 78 85 86 77 75 73 62 67 66 66 50 29 22 35 36 44 39 37 34 36 39 40 39 43 46 48 53 54
73 72 73 73 75 74 71 67 66 69 74 73 71 72 75 81 85 77 74 74 67 65 66 69 63 43 29 28 42 45 47 42 39 38 43 42 42 45 47 49 52 53 56
75 76 73 71 74 77 77 75 71 69 74 76 74 74 77 79 82 74 79 77 75 72 70 70 61 43 27 46 39 48 46 43 44 43 47 46 47 50 51 56 53 51 61
71 71 68 68 73 75 76 76 73 66 69 75 75 72 72 72 75 82 85 83 77 73 76 76 67 45 51 48 43 49 48 48 45 49 48 49 50 52 55 60 53 54 57
60 62 64 63 67 69 71 75 71 66 67 73 72 70 69 69 80 84 85 85 82 78 82 80 71 61 48 45 45 51 49 48 50 52 51 53 56 58 59 55 51 52 59
51 54 56 56 59 60 63 71 68 69 68 69 69 67 68 76 75 80 82 85 76 78 79 76 70 60 43 48 46 51 53 58 54 53 56 60 62 60 57 54 54 57 63
42 44 43 43 46 47 52 61 60 61 62 65 63 63 64 69 76 86 84 82 73 76 75 78 64 64 51 57 48 49 56 57 59 60 65 66 64 62 60 59 58 63 68
33 34 34 37 39 41 45 49 52 56 56 57 58 61 60 66 75 81 83 78 76 72 77 75 73 65 61 66 54 50 58 61 64 65 68 68 66 67 64 58 61 64 66
27 28 30 33 34 35 39 40 44 45 44 48 51 57 58 59 67 75 81 85 81 73 75 78 77 72 72 75 69 61 57 62 67 66 69 69 65 66 64 61 62 63 61
31 30 30 31 32 31 33 35 36 36 34 37 42 45 42 42 50 54 69 76 70 69 74 76 81 84 85 80 79 69 64 62 63 64 63 64 64 61 60 62 61 60 61
32 31 30 27 26 26 27 27 29 30 32 35 38 39 37 34 39 39 48 61 68 72 70 76 80 81 81 82 75 70 68 69 68 67 65 63 62 59 59 56 55 58 58
32 32 31 29 27 25 25 25 26 27 30 36 39 36 38 40 39 41 43 50 62 68 80 84 73 83 78 79 72 68 68 71 70 63 60 58 58 55 52 53 56 56 56
38 38 36 33 30 29 26 26 28 27 28 28 29 34 35 34 34 36 40 49 56 63 72 76 76 84 84 77 71 67 63 62 60 59 56 53 51 50 53 53 55 53 49
38 35 33 32 33 35 31 29 31 30 31 31 29 32 35 38 41 46 51 54 59 62 66 71 73 74 72 69 64 61 55 53 53 53 53 50 50 53 52 50 47 44 42
39 39 38 32 31 31 28 26 28 27 28 26 24 25 30 36 41 43 46 48 51 62 64 64 61 61 62 62 59 54 50 50 50 49 49 51 51 50 47 44 42 40 38
42 40 37 35 33 30 26 23 24 24 25 27 29 29 31 37 43 47 50 54 52 49 51 54 57 58 57 55 50 48 48 48 47 48 51 51 49 47 42 40 38 36 38
37 37 36 36 35 30 26 26 27 29 30 31 32 31 33 38 43 48 53 53 50 51 53 53 51 50 49 50 49 49 48 48 49 51 51 49 47 44 39 39 37 35 36
39 38 38 36 33 31 30 31 32 33 34 34 34 34 34 37 38 41 41 42 45 46 47 48 48 48 48 49 48 49 51 53 51 50 49 47 43 41 40 39 36 35 35
30 31 32 31 30 30 29 30 29 29 29 29 29 29 30 32 33 34 36 39 40 40 39 41 44 47 49 50 50 51 51 50 48 48 46 43 41 41 40 40 37 35 35
23 23 23 23 23 23 23 23 24 25 25 25 26 26 28 29 31 33 34 35 37 38 40 41 43 46 48 49 49 48 48 48 47 46 45 44 43 41 41 39 37 36 36
Wind_Direction_500mb
230 227 227 229 231 234 235 235 230 228 228 226 225 230 231 228 221 216 220 222 218 222 223 222 217 213 209 204 198 194 192 237 276 241 236 232 244 262 282 299 310 317 322
235 230 230 230 231 234 233 233 229 227 227 227 231 229 228 225 223 216 219 220 221 220 218 214 211 207 202 196 184 206 239 239 254 231 231 234 249 271 287 298 307 313 319
239 234 231 229 231 234 232 234 227 226 225 225 227 230 233 230 223 217 221 223 219 217 216 214 209 203 196 187 208 227 214 250 235 229 230 242 257 272 285 297 307 312 317
244 237 233 232 234 234 235 236 229 226 226 228 231 235 234 231 228 220 220 220 218 214 210 205 203 198 189 197 213 216 238 243 228 233 240 251 270 283 293 300 308 312 316
252 245 237 234 233 232 234 234 231 230 231 233 232 231 230 228 223 217 218 217 216 213 208 206 199 189 197 209 238 246 249 235 230 236 247 261 279 287 295 302 307 311 316
256 253 245 243 238 237 237 236 232 231 231 233 232 231 230 225 220 216 218 217 215 213 206 204 197 195 210 221 268 277 232 233 234 244 252 272 275 285 293 300 305 313 310
260 256 251 247 242 240 239 239 237 236 236 236 235 233 230 226 222 219 217 218 214 211 219 208 199 204 217 261 288 235 233 234 242 251 269 272 277 286 291 296 303 302 305
258 256 251 248 245 243 241 241 242 238 238 239 239 235 230 228 227 217 212 211 218 218 224 217 204 212 237 283 272 233 235 240 250 263 267 270 278 284 290 295 295 299 310
259 256 252 249 248 245 242 239 239 240 240 238 239 238 234 229 224 212 209 214 216 218 217 210 208 224 259 270 259 239 241 244 251 262 269 273 279 284 289 290 294 303 306
261 261 256 249 250 247 246 243 240 241 244 243 241 239 238 231 218 209 212 213 213 214 218 211 218 233 258 267 260 244 244 247 257 265 267 272 278 283 286 288 292 294 298
259 256 251 249 249 247 245 244 240 240 241 241 240 239 235 225 218 213 212 216 220 214 218 218 224 241 241 270 264 243 249 253 259 264 268 273 276 278 280 283 286 288 295
262 257 253 251 247 244 242 242 238 235 236 239 237 236 232 225 215 215 218 220 222 221 223 226 232 239 262 271 271 254 248 255 259 265 271 273 277 281 286 288 287 290 297
260 254 249 244 242 240 237 237 235 234 233 235 236 237 233 227 215 214 222 222 220 224 228 233 235 245 249 270 272 264 250 254 264 269 273 278 283 287 285 286 289 296 299
258 248 243 240 238 236 234 233 233 234 233 237 236 238 233 227 224 217 216 224 227 225 232 231 238 236 254 267 266 263 253 257 264 269 273 278 280 280 284 287 288 295 297
244 235 228 226 225 224 228 234 233 236 240 245 245 242 235 234 234 228 222 220 224 226 233 233 232 236 248 261 264 262 262 262 264 271 274 275 275 279 283 288 291 294 293
240 226 222 219 219 217 221 224 226 232 235 240 244 249 250 247 247 236 227 224 227 235 240 239 237 242 246 256 263 263 266 270 271 273 274 272 272 274 279 283 286 289 294
234 225 218 214 213 214 215 218 222 226 225 229 234 239 233 240 247 243 229 225 230 236 229 238 242 247 248 263 261 261 265 271 275 272 274 273 272 273 275 279 282 286 292
236 234 229 222 218 218 217 216 215 217 223 226 225 224 224 233 235 237 234 232 230 226 233 232 242 247 258 261 258 262 270 272 272 272 269 268 269 271 272 277 282 286 292
238 236 232 225 222 223 220 224 224 220 221 222 224 226 224 226 229 227 231 232 233 235 237 237 241 248 260 257 260 265 265 264 265 265 267 268 268 268 273 277 281 286 291
231 234 236 235 227 221 215 218 222 220 227 229 224 226 225 220 224 232 231 232 236 241 243 247 249 250 253 259 264 265 263 258 260 263 264 265 267 272 274 277 280 284 292
230 227 228 227 227 224 220 214 226 226 228 233 236 230 230 228 234 233 243 243 236 236 240 245 247 250 253 256 259 261 259 260 261 262 263 267 270 272 272 275 279 285 290
221 220 221 221 220 219 214 214 226 233 236 233 233 233 233 232 229 232 234 240 244 243 245 247 249 251 255 259 261 260 260 261 262 264 267 269 268 268 269 272 276 283 288
217 218 219 219 220 220 218 224 229 234 238 242 244 242 240 241 239 240 243 247 251 251 252 253 254 255 257 259 260 260 261 262 265 266 266 265 264 263 265 269 274 278 282
214 214 217 220 221 223 226 229 234 238 241 245 247 248 249 249 250 251 254 254 255 254 253 254 255 255 255 256 257 259 261 263 263 262 261 258 257 259 263 266 269 272 276
218 219 221 225 228 231 234 236 240 244 248 253 256 257 256 257 258 257 255 252 252 253 252 252 252 254 256 257 257 258 258 257 257 256 255 253 255 257 259 263 264 266 269
216 219 223 227 232 236 238 240 243 245 248 249 251 251 251 251 251 252 251 252 254 254 255 255 256 257 258 258 258 258 257 257 255 253 251 251 252 255 257 259 259 262 265
Wind_Speed_850mb
53 58 63 66 66 66 66 66 61 61 60 63 68 72 72 81 84 82 79 78 77 78 73 66 60 54 47 40 32 25 19 15 19 30 32 26 23 22 22 25 28 33 39
46 54 60 60 62 64 65 64 63 63 64 66 68 70 71 83 87 81 82 82 82 79 77 70 64 57 48 38 31 21 20 18 18 33 31 28 23 23 27 31 37 41 45
41 50 56 62 64 63 62 62 63 62 64 68 68 71 73 81 87 82 79 79 81 78 77 72 68 60 50 41 23 17 19 18 33 34 30 27 26 28 32 37 42 47 50
42 50 57 63 64 62 61 61 64 65 69 72 71 70 69 77 84 83 78 78 76 72 70 66 58 52 46 27 14 18 18 27 34 33 30 28 29 34 37 42 44 50 53
51 57 63 68 66 64 63 63 64 68 70 69 72 71 71 77 82 80 82 81 78 75 68 61 55 51 29 15 14 14 26 35 34 32 31 27 32 37 39 44 48 52 54
61 62 66 70 67 68 64 62 63 69 72 71 71 70 72 76 80 81 78 79 77 75 69 64 60 51 32 19 19 32 36 37 34 33 31 33 35 38 41 45 48 53 59
67 66 68 71 72 72 68 64 64 70 72 70 71 72 73 78 85 86 77 75 73 62 67 66 66 50 29 22 35 36 44 39 37 34 36 39 40 39 43 46 48 53 54
73 72 73 73 75 74 71 67 66 69 74 73 71 72 75 81 85 77 74 74 67 65 66 69 63 43 29 28 42 45 47 42 39 38 43 42 42 45 47 49 52 53 56
75 76 73 71 74 77 77 75 71 69 74 76 74 74 77 79 82 74 79 77 75 72 70 70 61 43 27 46 39 48 46 43 44 43 47 46 47 50 51 56 53 51 61
71 71 68 68 73 75 76 76 73 66 69 75 75 72 72 72 75 82 85 83 77 73 76 76 67 45 51 48 43 49 48 48 45 49 48 49 50 52 55 60 53 54 57
60 62 64 63 67 69 71 75 71 66 67 73 72 70 69 69 80 84 85 85 82 78 82 80 71 61 48 45 45 51 49 48 50 52 51 53 56 58 59 55 51 52 59
51 54 56 56 59 60 63 71 68 69 68 69 69 67 68 76 75 80 82 85 76 78 79 76 70 60 43 48 46 51 53 58 54 53 56 60 62 60 57 54 54 57 63
42 44 43 43 46 47 52 61 60 61 62 65 63 63 64 69 76 86 84 82 73 76 75 78 64 64 51 57 48 49 56 57 59 60 65 66 64 62 60 59 58 63 68
33 34 34 37 39 41 45 49 52 56 56 57 58 61 60 66 75 81 83 78 76 72 77 75 73 65 61 66 54 50 58 61 64 65 68 68 66 67 64 58 61 64 66
27 28 30 33 34 35 39 40 44 45 44 48 51 57 58 59 67 75 81 85 81 73 75 78 77 72 72 75 69 61 57 62 67 66 69 69 65 66 64 61 62 63 61
31 30 30 31 32 31 33 35 36 36 34 37 42 45 42 42 50 54 69 76 70 69 74 76 81 84 85 80 79 69 64 62 63 64 63 64 64 61 60 62 61 60 61
32 31 30 27 26 26 27 27 29 30 32 35 38 39 37 34 39 39 48 61 68 72 70 76 80 81 81 82 75 70 68 69 68 67 65 63 62 59 59 56 55 58 58
32 32 31 29 27 25 25 25 26 27 30 36 39 36 38 40 39 41 43 50 62 68 80 84 73 83 78 79 72 68 68 71 70 63 60 58 58 55 52 53 56 56 56
38 38 36 33 30 29 26 26 28 27 28 28 29 34 35 34 34 36 40 49 56 63 72 76 76 84 84 77 71 67 63 62 60 59 56 53 51 50 53 53 55 53 49
38 35 33 32 33 35 31 29 31 30 31 31 29 32 35 38 41 46 51 54 59 62 66 71 73 74 72 69 64 61 55 53 53 53 53 50 50 53 52 50 47 44 42
39 39 38 32 31 31 28 26 28 27 28 26 24 25 30 36 41 43 46 48 51 62 64 64 61 61 62 62 59 54 50 50 50 49 49 51 51 50 47 44 42 40 38
42 40 37 35 33 30 26 23 24 24 25 27 29 29 31 37 43 47 50 54 52 49 51 54 57 58 57 55 50 48 48 48 47 48 51 51 49 47 42 40 38 36 38
37 37 36 36 35 30 26 26 27 29 30 31 32 31 33 38 43 48 53 53 50 51 53 53 51 50 49 50 49 49 48 48 49 51 51 49 47 44 39 39 37 35 36
39 38 38 36 33 31 30 31 32 33 34 34 34 34 34 37 38 41 41 42 45 46 47 48 48 48 48 49 48 49 51 53 51 50 49 47 43 41 40 39 36 35 35
30 31 32 31 30 30 29 30 29 29 29 29 29 29 30 32 33 34 36 39 40 40 39 41 44 47 49 50 50 51 51 50 48 48 46 43 41 41 40 40 37 35 35
23 23 23 23 23 23 23 23 24 25 25 25 26 26 28 29 31 33 34 35 37 38 40 41 43 46 48 49 49 48 48 48 47 46 45 44 43 41 41 39 37 36 36
Wind_Direction_850mb
230 227 227 229 231 234 235 235 230 228 228 226 225 230 231 228 221 216 220 222 218 222 223 222 217 213 209 204 198 194 192 237 276 241 236 232 244 262 282 299 310 317 322
235 230 230 230 231 234 233 233 229 227 227 227 231 229 228 225 223 216 219 220 221 220 218 214 211 207 202 196 184 206 239 239 254 231 231 234 249 271 287 298 307 313 319
239 234 231 229 231 234 232 234 227 226 225 225 227 230 233 230 223 217 221 223 219 217 216 214 209 203 196 187 208 227 214 250 235 229 230 242 257 272 285 297 307 312 317
244 237 233 232 234 234 235 236 229 226 226 228 231 235 234 231 228 220 220 220 218 214 210 205 203 198 189 197 213 216 238 243 228 233 240 251 270 283 293 300 308 312 316
252 245 237 234 233 232 234 234 231 230 231 233 232 231 230 228 223 217 218 217 216 213 208 206 199 189 197 209 238 246 249 235 230 236 247 261 279 287 295 302 307 311 316
256 253 245 243 238 237 237 236 232 231 231 233 232 231 230 225 220 216 218 217 215 213 206 204 197 195 210 221 268 277 232 233 234 244 252 272 275 285 293 300 305 313 310
260 256 251 247 242 240 239 239 237 236 236 236 235 233 230 226 222 219 217 218 214 211 219 208 199 204 217 261 288 235 233 234 242 251 269 272 277 286 291 296 303 302 305
258 256 251 248 245 243 241 241 242 238 238 239 239 235 230 228 227 217 212 211 218 218 224 217 204 212 237 283 272 233 235 240 250 263 267 270 278 284 290 295 295 299 310
259 256 252 249 248 245 242 239 239 240 240 238 239 238 234 229 224 212 209 214 216 218 217 210 208 224 259 270 259 239 241 244 251 262 269 273 279 284 289 290 294 303 306
261 261 256 249 250 247 246 243 240 241 244 243 241 239 238 231 218 209 212 213 213 214 218 211 218 233 258 267 260 244 244 247 257 265 267 272 278 283 286 288 292 294 298
259 256 251 249 249 247 245 244 240 240 241 241 240 239 235 225 218 213 212 216 220 214 218 218 224 241 241 270 264 243 249 253 259 264 268 273 276 278 280 283 286 288 295
262 257 253 251 247 244 242 242 238 235 236 239 237 236 232 225 215 215 218 220 222 221 223 226 232 239 262 271 271 254 248 255 259 265 271 273 277 281 286 288 287 290 297
260 254 249 244 242 240 237 237 235 234 233 235 236 237 233 227 215 214 222 222 220 224 228 233 235 245 249 270 272 264 250 254 264 269 273 278 283 287 285 286 289 296 299
258 248 243 240 238 236 234 233 233 234 233 237 236 238 233 227 224 217 216 224 227 225 232 231 238 236 254 267 266 263 253 257 264 269 273 278 280 280 284 287 288 295 297
244 235 228 226 225 224 228 234 233 236 240 245 245 242 235 234 234 228 222 220 224 226 233 233 232 236 248 261 264 262 262 262 264 271 274 275 275 279 283 288 291 294 293
240 226 222 219 219 217 221 224 226 232 235 240 244 249 250 247 247 236 227 224 227 235 240 239 237 242 246 256 263 263 266 270 271 273 274 272 272 274 279 283 286 289 294
234 225 218 214 213 214 215 218 222 226 225 229 234 239 233 240 247 243 229 225 230 236 229 238 242 247 248 263 261 261 265 271 275 272 274 273 272 273 275 279 282 286 292
236 234 229 222 218 218 217 216 215 217 223 226 225 224 224 233 235 237 234 232 230 226 233 232 242 247 258 261 258 262 270 272 272 272 269 268 269 271 272 277 282 286 292
238 236 232 225 222 223 220 224 224 220 221 222 224 226 224 226 229 227 231 232 233 235 237 237 241 248 260 257 260 265 265 264 265 265 267 268 268 268 273 277 281 286 291
231 234 236 235 227 221 215 218 222 220 227 229 224 226 225 220 224 232 231 232 236 241 243 247 249 250 253 259 264 265 263 258 260 263 264 265 267 272 274 277 280 284 292
230 227 228 227 227 224 220 214 226 226 228 233 236 230 230 228 234 233 243 243 236 236 240 245 247 250 253 256 259 261 259 260 261 262 263 267 270 272 272 275 279 285 290
221 220 221 221 220 219 214 214 226 233 236 233 233 233 233 232 229 232 234 240 244 243 245 247 249 251 255 259 261 260 260 261 262 264 267 269 268 268 269 272 276 283 288
217 218 219 219 220 220 218 224 229 234 238 242 244 242 240 241 239 240 243 247 251 251 252 253 254 255 257 259 260 260 261 262 265 266 266 265 264 263 265 269 274 278 282
214 214 217 220 221 223 226 229 234 238 241 245 247 248 249 249 250 251 254 254 255 254 253 254 255 255 255 256 257 259 261 263 263 262 261 258 257 259 263 266 269 272 276
218 219 221 225 228 231 234 236 240 244 248 253 256 257 256 257 258 257 255 252 252 253 252 252 252 254 256 257 257 258 258 257 257 256 255 253 255 257 259 263 264 266 269
216 219 223 227 232 236 238 240 243 245 248 249 251 251 251 251 251 252 251 252 254 254 255 255 256 257 258 258 258 258 257 257 255 253 251 251 252 255 257 259 259 262 265